Location: Pettit
(39.0209°N, 79.7181°W)
Time: 04:44:10
(UTC+00:00)

ISS - Pass Details

Date: 27 April 2026
Orbit: 414 x 424 km, 51.6° (Epoch: 15 May)

Event Time Altitude Azimuth Distance (km) Brightness Sun altitude
Exits shadow 08:58:45 - 310° (NW) 1,869 -0.6 -16.0°
Reaches altitude 10° 09:00:41 10° 336° (NNW) 1,501 -0.8 -15.7°
Maximum altitude 09:01:33 11° 351° (N) 1,456 -0.7 -15.5°
Drops below altitude 10° 09:02:26 10° 6° (N) 1,503 -0.4 -15.4°
Sets 09:06:03 0° 47° (NE) 2,372 1.8 -14.8°
